| time (UTC) | temp F | wind direction | speed MPH | gust MPH | rain 1hr in | rain 24hr in | rain mn in | humidity % | barometer mb |
| 20260906031404 | 72 | 138 | 0.0 | 1.0 | 0.00 | 0.00 | 0.00 | 77 | 1019.6 |
| 20260906030405 | 72 | 138 | 0.0 | 0.0 | 0.00 | 0.00 | 0.00 | 77 | 1019.6 |
| 20260906025905 | 72 | 138 | 2.0 | 5.0 | 0.00 | 0.00 | 0.00 | 77 | 1019.6 |
| 20260906025405 | 72 | 138 | 1.0 | 5.0 | 0.00 | 0.00 | 0.00 | 77 | 1019.7 |
| 20260906024904 | 72 | 138 | 1.0 | 6.0 | 0.00 | 0.00 | 0.00 | 76 | 1019.7 |
| 20260906024404 | 72 | 138 | 0.0 | 6.0 | 0.00 | 0.00 | 0.00 | 76 | 1019.8 |
| 20260906023905 | 73 | 138 | 2.0 | 6.0 | 0.00 | 0.00 | 0.00 | 76 | 1019.8 |
| 20260906023404 | 73 | 138 | 3.0 | 6.0 | 0.00 | 0.00 | 0.00 | 76 | 1019.7 |
| 20260906022905 | 73 | 138 | 2.0 | 6.0 | 0.00 | 0.00 | 0.00 | 75 | 1019.7 |
| 20260906022404 | 73 | 138 | 1.0 | 6.0 | 0.00 | 0.00 | 0.00 | 75 | 1019.7 |
| 20260906020905 | 74 | 138 | 1.0 | 5.0 | 0.00 | 0.00 | 0.00 | 74 | 1019.9 |
| 20260906020404 | 74 | 138 | 2.0 | 5.0 | 0.00 | 0.00 | 0.00 | 74 | 1019.9 |
| 20260906015405 | 74 | 138 | 0.0 | 0.0 | 0.00 | 0.00 | 0.00 | 73 | 1019.9 |
| 20260906014905 | 75 | 138 | 1.0 | 3.0 | 0.00 | 0.00 | 0.00 | 73 | 1020.0 |
| 20260906014405 | 75 | 138 | 4.0 | 7.0 | 0.00 | 0.00 | 0.00 | 73 | 1020.0 |
| 20260906013904 | 75 | 138 | 0.0 | 5.0 | 0.00 | 0.00 | 0.00 | 72 | 1020.1 |
| 20260906013405 | 75 | 138 | 1.0 | 5.0 | 0.00 | 0.00 | 0.00 | 72 | 1020.1 |
| 20260906012904 | 76 | 138 | 0.0 | 6.0 | 0.00 | 0.00 | 0.00 | 72 | 1020.1 |
| 20260906012405 | 76 | 138 | 3.0 | 6.0 | 0.00 | 0.00 | 0.00 | 71 | 1020.0 |
| 20260906011905 | 76 | 138 | 1.0 | 5.0 | 0.00 | 0.00 | 0.00 | 71 | 1020.0 |
| 20260906011404 | 76 | 138 | 0.0 | 5.0 | 0.00 | 0.00 | 0.00 | 71 | 1020.1 |
| 20260906010904 | 76 | 138 | 0.0 | 0.0 | 0.00 | 0.00 | 0.00 | 70 | 1020.1 |
| 20260906010405 | 77 | 138 | 0.0 | 1.0 | 0.00 | 0.00 | 0.00 | 69 | 1020.1 |
| 20260906005904 | 77 | 138 | 2.0 | 6.0 | 0.00 | 0.00 | 0.00 | 69 | 1020.1 |
| 20260906005404 | 77 | 138 | 1.0 | 7.0 | 0.00 | 0.00 | 0.00 | 69 | 1020.2 |
| 20260906004905 | 77 | 138 | 0.0 | 7.0 | 0.00 | 0.00 | 0.00 | 69 | 1020.2 |
| 20260906004404 | 77 | 138 | 2.0 | 5.0 | 0.00 | 0.00 | 0.00 | 69 | 1020.2 |
| 20260906003905 | 77 | 138 | 1.0 | 5.0 | 0.00 | 0.00 | 0.00 | 70 | 1020.2 |
| 20260906003405 | 77 | 138 | 0.0 | 0.0 | 0.00 | 0.00 | 0.00 | 69 | 1020.3 |
| 20260906002404 | 77 | 138 | 0.0 | 3.0 | 0.00 | 0.00 | 0.00 | 69 | 1020.3 |
| 20260906001404 | 78 | 138 | 0.0 | 5.0 | 0.00 | 0.00 | 0.00 | 67 | 1020.3 |
| 20260906000905 | 78 | 138 | 3.0 | 7.0 | 0.00 | 0.00 | 0.00 | 67 | 1020.3 |
| 20260906000404 | 78 | 138 | 0.0 | 0.0 | 0.00 | 0.00 | 0.00 | 67 | 1020.2 |
| 20260905235905 | 78 | 138 | 0.0 | 1.0 | 0.00 | 0.00 | 0.00 | 66 | 1020.2 |
| 20260905235404 | 78 | 138 | 0.0 | 1.0 | 0.00 | 0.00 | 0.00 | 65 | 1020.1 |
| 20260905234904 | 78 | 138 | 0.0 | 1.0 | 0.00 | 0.00 | 0.00 | 65 | 1020.2 |
| 20260905234405 | 78 | 138 | 1.0 | 5.0 | 0.00 | 0.00 | 0.00 | 64 | 1020.2 |
| 20260905233405 | 79 | 138 | 1.0 | 5.0 | 0.00 | 0.00 | 0.00 | 63 | 1020.1 |
| 20260905232904 | 79 | 138 | 0.0 | 1.0 | 0.00 | 0.00 | 0.00 | 63 | 1020.1 |
| 20260905232404 | 79 | 138 | 0.0 | 1.0 | 0.00 | 0.00 | 0.00 | 63 | 1020.0 |
| 20260905231904 | 80 | 138 | 0.0 | 0.0 | 0.00 | 0.00 | 0.00 | 62 | 1020.0 |
| 20260905231404 | 80 | 138 | 0.0 | 0.0 | 0.00 | 0.00 | 0.00 | 62 | 1019.9 |
| 20260905230904 | 80 | 138 | 0.0 | 5.0 | 0.00 | 0.00 | 0.00 | 62 | 1019.8 |
| 20260905230404 | 80 | 138 | 0.0 | 3.0 | 0.00 | 0.00 | 0.00 | 62 | 1019.8 |
| 20260905225904 | 80 | 138 | 1.0 | 5.0 | 0.00 | 0.00 | 0.00 | 62 | 1019.8 |
| 20260905225405 | 80 | 138 | 1.0 | 7.0 | 0.00 | 0.00 | 0.00 | 62 | 1019.8 |
| 20260905224904 | 80 | 138 | 2.0 | 8.0 | 0.00 | 0.00 | 0.00 | 62 | 1019.7 |
| 20260905224404 | 80 | 155 | 1.0 | 7.0 | 0.00 | 0.00 | 0.00 | 62 | 1019.6 |
| 20260905223904 | 80 | 146 | 1.0 | 6.0 | 0.00 | 0.00 | 0.00 | 62 | 1019.5 |
| 20260905223404 | 81 | 146 | 0.0 | 5.0 | 0.00 | 0.00 | 0.00 | 62 | 1019.5 |
| 20260905222904 | 81 | 146 | 5.0 | 7.0 | 0.00 | 0.00 | 0.00 | 62 | 1019.5 |
| 20260905222404 | 81 | 142 | 0.0 | 1.0 | 0.00 | 0.00 | 0.00 | 62 | 1019.4 |
| 20260905221905 | 81 | 131 | 0.0 | 3.0 | 0.00 | 0.00 | 0.00 | 62 | 1019.4 |
| 20260905221405 | 82 | 140 | 1.0 | 6.0 | 0.00 | 0.00 | 0.00 | 62 | 1019.4 |
| 20260905215904 | 82 | 122 | 2.0 | 9.0 | 0.00 | 0.00 | 0.00 | 60 | 1019.2 |
| 20260905215405 | 83 | 99 | 3.0 | 8.0 | 0.00 | 0.00 | 0.00 | 60 | 1019.2 |
| 20260905214904 | 83 | 103 | 5.0 | 10.0 | 0.00 | 0.00 | 0.00 | 60 | 1019.2 |
| 20260905214404 | 83 | 89 | 4.0 | 12.0 | 0.00 | 0.00 | 0.00 | 60 | 1019.2 |
| 20260905213404 | 83 | 97 | 6.0 | 12.0 | 0.00 | 0.00 | 0.00 | 59 | 1019.2 |
| 20260905212404 | 84 | 94 | 3.0 | 10.0 | 0.00 | 0.00 | 0.00 | 57 | 1019.2 |
| 20260905211904 | 84 | 107 | 2.0 | 12.0 | 0.00 | 0.00 | 0.00 | 57 | 1019.1 |
| 20260905211404 | 85 | 96 | 2.0 | 12.0 | 0.00 | 0.00 | 0.00 | 56 | 1019.0 |
| 20260905210906 | 85 | 96 | 1.0 | 7.0 | 0.00 | 0.00 | 0.00 | 55 | 1018.9 |
| 20260905210404 | 85 | 91 | 2.0 | 10.0 | 0.00 | 0.00 | 0.00 | 55 | 1018.9 |
| 20260905205904 | 86 | 123 | 3.0 | 12.0 | 0.00 | 0.00 | 0.00 | 55 | 1018.9 |
| 20260905204904 | 86 | 107 | 0.0 | 5.0 | 0.00 | 0.00 | 0.00 | 54 | 1018.7 |
| 20260905204404 | 87 | 107 | 1.0 | 8.0 | 0.00 | 0.00 | 0.00 | 53 | 1018.6 |
| 20260905203904 | 87 | 113 | 1.0 | 3.0 | 0.00 | 0.00 | 0.00 | 53 | 1018.5 |
| 20260905203404 | 87 | 117 | 0.0 | 6.0 | 0.00 | 0.00 | 0.00 | 51 | 1018.4 |
| 20260905201904 | 89 | 126 | 0.0 | 1.0 | 0.00 | 0.00 | 0.00 | 48 | 1018.2 |
| 20260905200904 | 90 | 170 | 0.0 | 1.0 | 0.00 | 0.00 | 0.00 | 46 | 1018.0 |
| 20260905195904 | 90 | 171 | 0.0 | 0.0 | 0.00 | 0.00 | 0.00 | 45 | 1017.9 |
| 20260905195404 | 91 | 171 | 0.0 | 1.0 | 0.00 | 0.00 | 0.00 | 45 | 1018.0 |
| 20260905194904 | 91 | 192 | 0.0 | 1.0 | 0.00 | 0.00 | 0.00 | 43 | 1017.8 |
| 20260905194404 | 92 | 218 | 0.0 | 2.0 | 0.00 | 0.00 | 0.00 | 42 | 1017.8 |
| 20260905193906 | 92 | 122 | 1.0 | 3.0 | 0.00 | 0.00 | 0.00 | 40 | 1017.7 |
| 20260905193405 | 93 | 94 | 0.0 | 0.0 | 0.00 | 0.00 | 0.00 | 38 | 1017.7 |
| 20260905192904 | 93 | 94 | 0.0 | 0.0 | 0.00 | 0.00 | 0.00 | 37 | 1017.7 |
| 20260905192405 | 93 | 94 | 0.0 | 0.0 | 0.00 | 0.00 | 0.00 | 36 | 1017.6 |
| 20260905191905 | 94 | 94 | 0.0 | 1.0 | 0.00 | 0.00 | 0.00 | 36 | 1017.5 |
| 20260905190905 | 94 | 92 | 0.0 | 1.0 | 0.00 | 0.00 | 0.00 | 35 | 1017.4 |
| 20260905190405 | 95 | 108 | 0.0 | 5.0 | 0.00 | 0.00 | 0.00 | 35 | 1017.4 |
| 20260905185905 | 95 | 100 | 0.0 | 2.0 | 0.00 | 0.00 | 0.00 | 34 | 1017.4 |
| 20260905185406 | 95 | 94 | 0.0 | 6.0 | 0.00 | 0.00 | 0.00 | 34 | 1017.3 |
| 20260905184905 | 95 | 106 | 1.0 | 9.0 | 0.00 | 0.00 | 0.00 | 34 | 1017.3 |
| 20260905184405 | 96 | 101 | 0.0 | 2.0 | 0.00 | 0.00 | 0.00 | 33 | 1017.2 |
| 20260905183905 | 96 | 85 | 2.0 | 8.0 | 0.00 | 0.00 | 0.00 | 33 | 1017.1 |
| 20260905183407 | 96 | 83 | 0.0 | 12.0 | 0.00 | 0.00 | 0.00 | 33 | 1017.1 |
| 20260905182905 | 97 | 68 | 1.0 | 7.0 | 0.00 | 0.00 | 0.00 | 34 | 1017.1 |
| 20260905181905 | 97 | 104 | 2.0 | 8.0 | 0.00 | 0.00 | 0.00 | 33 | 1017.0 |
| 20260905181405 | 97 | 87 | 1.0 | 5.0 | 0.00 | 0.00 | 0.00 | 33 | 1017.0 |
| 20260905180906 | 97 | 107 | 2.0 | 7.0 | 0.00 | 0.00 | 0.00 | 33 | 1016.9 |
| 20260905180405 | 98 | 98 | 2.0 | 7.0 | 0.00 | 0.00 | 0.00 | 33 | 1016.8 |
| 20260905175905 | 98 | 96 | 2.0 | 8.0 | 0.00 | 0.00 | 0.00 | 33 | 1016.8 |
| 20260905175406 | 98 | 101 | 0.0 | 3.0 | 0.00 | 0.00 | 0.00 | 32 | 1016.8 |
| 20260905174406 | 98 | 120 | 1.0 | 5.0 | 0.00 | 0.00 | 0.00 | 32 | 1016.7 |
| 20260905173906 | 99 | 90 | 0.0 | 3.0 | 0.00 | 0.00 | 0.00 | 32 | 1016.7 |
| 20260905173405 | 99 | 101 | 1.0 | 6.0 | 0.00 | 0.00 | 0.00 | 31 | 1016.7 |
| 20260905172405 | 99 | 107 | 1.0 | 6.0 | 0.00 | 0.00 | 0.00 | 31 | 1016.7 |
| 20260905171906 | 99 | 107 | 1.0 | 9.0 | 0.00 | 0.00 | 0.00 | 31 | 1016.7 |
| 20260905171406 | 100 | 131 | 4.0 | 8.0 | 0.00 | 0.00 | 0.00 | 30 | 1016.7 |
| 20260905165405 | 100 | 117 | 0.0 | 8.0 | 0.00 | 0.00 | 0.00 | 28 | 1016.6 |
| 20260905164906 | 100 | 28 | 3.0 | 9.0 | 0.00 | 0.00 | 0.00 | 28 | 1016.5 |
| 20260905164405 | 100 | 44 | 2.0 | 9.0 | 0.00 | 0.00 | 0.00 | 27 | 1016.6 |
| 20260905163405 | 100 | 349 | 0.0 | 7.0 | 0.00 | 0.00 | 0.00 | 27 | 1016.6 |
| 20260905162905 | 100 | 11 | 2.0 | 7.0 | 0.00 | 0.00 | 0.00 | 27 | 1016.6 |
| 20260905162405 | 101 | 92 | 0.0 | 3.0 | 0.00 | 0.00 | 0.00 | 26 | 1016.6 |
| 20260905161906 | 101 | 98 | 3.0 | 5.0 | 0.00 | 0.00 | 0.00 | 26 | 1016.7 |
| 20260905161405 | 100 | 69 | 3.0 | 12.0 | 0.00 | 0.00 | 0.00 | 27 | 1016.8 |
| 20260905160905 | 100 | 12 | 0.0 | 3.0 | 0.00 | 0.00 | 0.00 | 27 | 1016.8 |
| 20260905155906 | 101 | 41 | 3.0 | 12.0 | 0.00 | 0.00 | 0.00 | 27 | 1017.0 |
| 20260905155406 | 101 | 57 | 4.0 | 12.0 | 0.00 | 0.00 | 0.00 | 27 | 1017.0 |
| 20260905154905 | 101 | 30 | 3.0 | 13.0 | 0.00 | 0.00 | 0.00 | 26 | 1017.0 |
| 20260905154406 | 101 | 14 | 5.0 | 12.0 | 0.00 | 0.00 | 0.00 | 26 | 1017.1 |
| 20260905153905 | 101 | 14 | 4.0 | 10.0 | 0.00 | 0.00 | 0.00 | 26 | 1017.0 |
| 20260905152905 | 101 | 10 | 3.0 | 12.0 | 0.00 | 0.00 | 0.00 | 27 | 1017.1 |
| 20260905152405 | 101 | 110 | 1.0 | 8.0 | 0.00 | 0.00 | 0.00 | 26 | 1017.1 |
| 20260905151905 | 100 | 15 | 1.0 | 10.0 | 0.00 | 0.00 | 0.00 | 26 | 1017.1 |
| 20260905150905 | 100 | 18 | 5.0 | 14.0 | 0.00 | 0.00 | 0.00 | 28 | 1017.2 |
| 20260905150405 | 99 | 30 | 3.0 | 8.0 | 0.00 | 0.00 | 0.00 | 29 | 1017.3 |
| 20260905145905 | 99 | 29 | 5.0 | 10.0 | 0.00 | 0.00 | 0.00 | 29 | 1017.4 |
| 20260905145405 | 99 | 57 | 3.0 | 12.0 | 0.00 | 0.00 | 0.00 | 29 | 1017.4 |
| 20260905144905 | 99 | 27 | 2.0 | 9.0 | 0.00 | 0.00 | 0.00 | 29 | 1017.4 |
| 20260905144406 | 99 | 16 | 4.0 | 14.0 | 0.00 | 0.00 | 0.00 | 29 | 1017.5 |
| 20260905143905 | 99 | 19 | 2.0 | 8.0 | 0.00 | 0.00 | 0.00 | 29 | 1017.5 |
| 20260905142906 | 99 | 29 | 3.0 | 9.0 | 0.00 | 0.00 | 0.00 | 28 | 1017.6 |
| 20260905142405 | 98 | 71 | 1.0 | 7.0 | 0.00 | 0.00 | 0.00 | 29 | 1017.6 |
| 20260905141905 | 98 | 48 | 0.0 | 5.0 | 0.00 | 0.00 | 0.00 | 29 | 1017.6 |
| 20260905141405 | 98 | 71 | 0.0 | 3.0 | 0.00 | 0.00 | 0.00 | 30 | 1017.7 |
| 20260905140405 | 98 | 15 | 2.0 | 7.0 | 0.00 | 0.00 | 0.00 | 30 | 1017.9 |
| 20260905135905 | 98 | 37 | 0.0 | 3.0 | 0.00 | 0.00 | 0.00 | 30 | 1018.0 |
| 20260905135405 | 98 | 71 | 3.0 | 8.0 | 0.00 | 0.00 | 0.00 | 30 | 1018.1 |
| 20260905134405 | 99 | 23 | 5.0 | 12.0 | 0.00 | 0.00 | 0.00 | 29 | 1018.2 |
| 20260905133905 | 99 | 30 | 4.0 | 13.0 | 0.00 | 0.00 | 0.00 | 29 | 1018.1 |
| 20260905133405 | 98 | 34 | 2.0 | 9.0 | 0.00 | 0.00 | 0.00 | 29 | 1018.1 |
| 20260905132905 | 98 | 17 | 2.0 | 10.0 | 0.00 | 0.00 | 0.00 | 29 | 1018.1 |
| 20260905132405 | 98 | 21 | 2.0 | 13.0 | 0.00 | 0.00 | 0.00 | 30 | 1018.1 |
| 20260905131905 | 98 | 23 | 5.0 | 13.0 | 0.00 | 0.00 | 0.00 | 29 | 1018.2 |
| 20260905131405 | 98 | 7 | 3.0 | 8.0 | 0.00 | 0.00 | 0.00 | 29 | 1018.3 |
| 20260905130905 | 97 | 354 | 2.0 | 6.0 | 0.00 | 0.00 | 0.00 | 31 | 1018.3 |
| 20260905130405 | 97 | 329 | 2.0 | 8.0 | 0.00 | 0.00 | 0.00 | 31 | 1018.3 |
| 20260905125905 | 97 | 63 | 0.0 | 1.0 | 0.00 | 0.00 | 0.00 | 32 | 1018.4 |
| 20260905125405 | 96 | 63 | 1.0 | 3.0 | 0.00 | 0.00 | 0.00 | 33 | 1018.3 |
| 20260905124905 | 95 | 336 | 0.0 | 1.0 | 0.00 | 0.00 | 0.00 | 34 | 1018.4 |
| 20260905124406 | 95 | 336 | 2.0 | 6.0 | 0.00 | 0.00 | 0.00 | 34 | 1018.4 |
| 20260905123905 | 95 | 333 | 1.0 | 6.0 | 0.00 | 0.00 | 0.00 | 35 | 1018.5 |
| 20260905123405 | 95 | 277 | 2.0 | 7.0 | 0.00 | 0.00 | 0.00 | 37 | 1018.5 |
| 20260905122405 | 94 | 346 | 1.0 | 6.0 | 0.00 | 0.00 | 0.00 | 38 | 1018.5 |
| 20260905121905 | 94 | 346 | 1.0 | 5.0 | 0.00 | 0.00 | 0.00 | 38 | 1018.6 |
| 20260905121405 | 93 | 346 | 0.0 | 1.0 | 0.00 | 0.00 | 0.00 | 39 | 1018.7 |
| 20260905120905 | 94 | 346 | 0.0 | 1.0 | 0.00 | 0.00 | 0.00 | 39 | 1018.7 |
| 20260905120405 | 93 | 346 | 0.0 | 1.0 | 0.00 | 0.00 | 0.00 | 40 | 1018.7 |
| 20260905115905 | 93 | 346 | 0.0 | 3.0 | 0.00 | 0.00 | 0.00 | 41 | 1018.7 |
| 20260905115405 | 92 | 346 | 0.0 | 1.0 | 0.00 | 0.00 | 0.00 | 42 | 1018.8 |
| 20260905114905 | 90 | 346 | 0.0 | 5.0 | 0.00 | 0.00 | 0.00 | 44 | 1018.9 |
| 20260905114405 | 90 | 346 | 0.0 | 7.0 | 0.00 | 0.00 | 0.00 | 43 | 1019.0 |
| 20260905113905 | 90 | 346 | 1.0 | 6.0 | 0.00 | 0.00 | 0.00 | 43 | 1019.1 |
| 20260905113405 | 91 | 346 | 0.0 | 1.0 | 0.00 | 0.00 | 0.00 | 43 | 1019.2 |
| 20260905112905 | 90 | 346 | 0.0 | 1.0 | 0.00 | 0.00 | 0.00 | 43 | 1019.2 |
| 20260905112405 | 89 | 346 | 0.0 | 0.0 | 0.00 | 0.00 | 0.00 | 44 | 1019.1 |
| 20260905111905 | 88 | 346 | 0.0 | 3.0 | 0.00 | 0.00 | 0.00 | 44 | 1019.3 |
| 20260905111405 | 89 | 346 | 1.0 | 3.0 | 0.00 | 0.00 | 0.00 | 45 | 1019.3 |
| 20260905110905 | 88 | 346 | 0.0 | 1.0 | 0.00 | 0.00 | 0.00 | 46 | 1019.4 |
| 20260905110405 | 87 | 346 | 0.0 | 1.0 | 0.00 | 0.00 | 0.00 | 46 | 1019.5 |
| 20260905105905 | 86 | 346 | 0.0 | 3.0 | 0.00 | 0.00 | 0.00 | 48 | 1019.6 |
| 20260905105405 | 86 | 346 | 2.0 | 5.0 | 0.00 | 0.00 | 0.00 | 48 | 1019.7 |
| 20260905104905 | 86 | 342 | 2.0 | 5.0 | 0.00 | 0.00 | 0.00 | 48 | 1019.7 |
| 20260905104405 | 86 | 304 | 0.0 | 1.0 | 0.00 | 0.00 | 0.00 | 50 | 1019.8 |
| 20260905103405 | 85 | 304 | 0.0 | 1.0 | 0.00 | 0.00 | 0.00 | 52 | 1019.8 |
| 20260905102905 | 84 | 304 | 0.0 | 2.0 | 0.00 | 0.00 | 0.00 | 52 | 1019.8 |
| 20260905101405 | 81 | 234 | 0.0 | 3.0 | 0.00 | 0.00 | 0.00 | 58 | 1019.8 |
| 20260905100905 | 80 | 234 | 2.0 | 5.0 | 0.00 | 0.00 | 0.00 | 58 | 1019.8 |
| 20260905100405 | 80 | 313 | 0.0 | 2.0 | 0.00 | 0.00 | 0.00 | 58 | 1019.8 |
| 20260905095905 | 79 | 313 | 1.0 | 3.0 | 0.00 | 0.00 | 0.00 | 61 | 1019.7 |
| 20260905095405 | 79 | 313 | 2.0 | 3.0 | 0.00 | 0.00 | 0.00 | 61 | 1019.7 |
| 20260905094905 | 78 | 313 | 1.0 | 5.0 | 0.00 | 0.00 | 0.00 | 63 | 1019.6 |
| 20260905094405 | 77 | 313 | 2.0 | 3.0 | 0.00 | 0.00 | 0.00 | 65 | 1019.7 |
| 20260905093905 | 76 | 266 | 2.0 | 5.0 | 0.00 | 0.00 | 0.00 | 66 | 1019.7 |
| 20260905093405 | 75 | 249 | 2.0 | 5.0 | 0.00 | 0.00 | 0.00 | 67 | 1019.6 |
| 20260905092905 | 75 | 298 | 3.0 | 6.0 | 0.00 | 0.00 | 0.00 | 67 | 1019.6 |
| 20260905091905 | 74 | 301 | 3.0 | 7.0 | 0.00 | 0.00 | 0.00 | 69 | 1019.5 |
| 20260905091405 | 73 | 355 | 1.0 | 5.0 | 0.00 | 0.00 | 0.00 | 70 | 1019.5 |
| 20260905090905 | 73 | 308 | 2.0 | 5.0 | 0.00 | 0.00 | 0.00 | 72 | 1019.5 |
| 20260905090405 | 72 | 279 | 3.0 | 6.0 | 0.00 | 0.00 | 0.00 | 72 | 1019.4 |
| 20260905085905 | 72 | 301 | 5.0 | 6.0 | 0.00 | 0.00 | 0.00 | 72 | 1019.3 |
| 20260905085405 | 71 | 295 | 3.0 | 7.0 | 0.00 | 0.00 | 0.00 | 73 | 1019.3 |
| 20260905084905 | 71 | 316 | 2.0 | 6.0 | 0.00 | 0.00 | 0.00 | 75 | 1019.3 |
| 20260905084405 | 70 | 316 | 2.0 | 7.0 | 0.00 | 0.00 | 0.00 | 75 | 1019.3 |
| 20260905083905 | 70 | 15 | 1.0 | 5.0 | 0.00 | 0.00 | 0.00 | 75 | 1019.3 |
| 20260905083405 | 70 | 296 | 3.0 | 8.0 | 0.00 | 0.00 | 0.00 | 75 | 1019.3 |
| 20260905082405 | 70 | 296 | 3.0 | 8.0 | 0.00 | 0.00 | 0.00 | 74 | 1019.2 |
| 20260905081405 | 71 | 335 | 3.0 | 6.0 | 0.00 | 0.00 | 0.00 | 73 | 1019.2 |
| 20260905080905 | 71 | 224 | 1.0 | 3.0 | 0.00 | 0.00 | 0.00 | 73 | 1019.2 |
| 20260905080405 | 71 | 318 | 1.0 | 3.0 | 0.00 | 0.00 | 0.00 | 74 | 1019.2 |
| 20260905075905 | 71 | 323 | 1.0 | 3.0 | 0.00 | 0.00 | 0.00 | 74 | 1019.2 |
| 20260905075405 | 70 | 306 | 2.0 | 3.0 | 0.00 | 0.00 | 0.00 | 74 | 1019.1 |
| 20260905074905 | 70 | 344 | 1.0 | 3.0 | 0.00 | 0.00 | 0.00 | 75 | 1019.0 |
| 20260905074405 | 70 | 336 | 3.0 | 5.0 | 0.00 | 0.00 | 0.00 | 74 | 1019.1 |
| 20260905073905 | 70 | 105 | 0.0 | 0.0 | 0.00 | 0.00 | 0.00 | 75 | 1019.0 |
| 20260905073405 | 70 | 105 | 0.0 | 0.0 | 0.00 | 0.00 | 0.00 | 76 | 1018.9 |
| 20260905072905 | 70 | 105 | 0.0 | 0.0 | 0.00 | 0.00 | 0.00 | 76 | 1019.0 |
| 20260905072406 | 69 | 105 | 0.0 | 2.0 | 0.00 | 0.00 | 0.00 | 77 | 1019.1 |
| 20260905071905 | 69 | 105 | 0.0 | 1.0 | 0.00 | 0.00 | 0.00 | 78 | 1019.0 |
| 20260905071405 | 68 | 105 | 0.0 | 0.0 | 0.00 | 0.00 | 0.00 | 79 | 1018.9 |
| 20260905070905 | 68 | 105 | 0.0 | 0.0 | 0.00 | 0.00 | 0.00 | 79 | 1018.7 |
| 20260905070405 | 68 | 105 | 0.0 | 0.0 | 0.00 | 0.00 | 0.00 | 79 | 1018.7 |
| 20260905065905 | 68 | 105 | 0.0 | 0.0 | 0.00 | 0.00 | 0.00 | 79 | 1018.7 |
| 20260905065405 | 67 | 105 | 0.0 | 0.0 | 0.00 | 0.00 | 0.00 | 79 | 1018.7 |
| 20260905064905 | 67 | 105 | 0.0 | 0.0 | 0.00 | 0.00 | 0.00 | 79 | 1018.6 |
| 20260905063905 | 67 | 105 | 0.0 | 0.0 | 0.00 | 0.00 | 0.00 | 79 | 1018.6 |
| 20260905063405 | 67 | 105 | 0.0 | 0.0 | 0.00 | 0.00 | 0.00 | 79 | 1018.5 |
| 20260905062904 | 67 | 105 | 0.0 | 0.0 | 0.00 | 0.00 | 0.00 | 79 | 1018.2 |
| 20260905061905 | 67 | 105 | 0.0 | 0.0 | 0.00 | 0.00 | 0.00 | 78 | 1018.1 |
| 20260905061405 | 68 | 105 | 0.0 | 0.0 | 0.00 | 0.00 | 0.00 | 78 | 1018.0 |
| 20260905060905 | 68 | 105 | 0.0 | 1.0 | 0.00 | 0.00 | 0.00 | 78 | 1018.1 |
| 20260905060405 | 68 | 105 | 0.0 | 0.0 | 0.00 | 0.00 | 0.00 | 78 | 1018.0 |
| 20260905055904 | 68 | 105 | 0.0 | 0.0 | 0.00 | 0.00 | 0.00 | 78 | 1017.9 |
| 20260905054905 | 68 | 105 | 0.0 | 0.0 | 0.00 | 0.00 | 0.00 | 77 | 1017.8 |
| 20260905054404 | 68 | 105 | 0.0 | 0.0 | 0.00 | 0.00 | 0.00 | 77 | 1017.7 |
| 20260905053405 | 68 | 105 | 0.0 | 1.0 | 0.00 | 0.00 | 0.00 | 77 | 1017.7 |
| 20260905052905 | 68 | 105 | 0.0 | 0.0 | 0.00 | 0.00 | 0.00 | 77 | 1017.7 |
| 20260905052405 | 68 | 105 | 0.0 | 0.0 | 0.00 | 0.00 | 0.00 | 77 | 1017.8 |
| 20260905051405 | 69 | 105 | 0.0 | 0.0 | 0.00 | 0.00 | 0.00 | 75 | 1017.6 |
| 20260905050904 | 69 | 105 | 0.0 | 0.0 | 0.00 | 0.00 | 0.00 | 75 | 1017.6 |
| 20260905050405 | 69 | 105 | 0.0 | 0.0 | 0.00 | 0.00 | 0.00 | 75 | 1017.5 |
| 20260905045905 | 69 | 105 | 0.0 | 0.0 | 0.00 | 0.00 | 0.00 | 75 | 1017.6 |
| 20260905044904 | 70 | 105 | 0.0 | 0.0 | 0.00 | 0.00 | 0.00 | 74 | 1017.6 |
| 20260905044405 | 70 | 105 | 0.0 | 0.0 | 0.00 | 0.00 | 0.00 | 74 | 1017.5 |
| 20260905043905 | 70 | 105 | 0.0 | 0.0 | 0.00 | 0.00 | 0.00 | 73 | 1017.4 |
| 20260905043405 | 70 | 105 | 0.0 | 2.0 | 0.00 | 0.00 | 0.00 | 73 | 1017.6 |
| 20260905042905 | 70 | 105 | 1.0 | 2.0 | 0.00 | 0.00 | 0.00 | 72 | 1017.5 |
| 20260905042404 | 70 | 105 | 0.0 | 0.0 | 0.00 | 0.00 | 0.00 | 72 | 1017.5 |
| 20260905041905 | 70 | 105 | 0.0 | 0.0 | 0.00 | 0.00 | 0.00 | 73 | 1017.5 |
| 20260905040905 | 70 | 105 | 0.0 | 0.0 | 0.00 | 0.00 | 0.00 | 72 | 1017.6 |
| 20260905040404 | 71 | 105 | 0.0 | 0.0 | 0.00 | 0.00 | 0.00 | 72 | 1017.6 |
| 20260905035905 | 71 | 105 | 0.0 | 0.0 | 0.00 | 0.00 | 0.00 | 72 | 1017.6 |
| 20260905035405 | 71 | 105 | 0.0 | 0.0 | 0.00 | 0.00 | 0.00 | 71 | 1017.6 |
| 20260905034905 | 71 | 105 | 0.0 | 0.0 | 0.00 | 0.00 | 0.00 | 71 | 1017.5 |
| 20260905034405 | 71 | 105 | 0.0 | 0.0 | 0.00 | 0.00 | 0.00 | 71 | 1017.5 |
| 20260905033405 | 71 | 105 | 0.0 | 0.0 | 0.00 | 0.00 | 0.00 | 71 | 1017.5 |
| 20260905032904 | 72 | 105 | 0.0 | 1.0 | 0.00 | 0.00 | 0.00 | 71 | 1017.6 |
| 20260905032405 | 72 | 105 | 0.0 | 0.0 | 0.00 | 0.00 | 0.00 | 71 | 1017.6 |
| 20260905031905 | 72 | 105 | 0.0 | 0.0 | 0.00 | 0.00 | 0.00 | 71 | 1017.7 |